Tracking 29777 objects as of 4-Oct-2024
HD Live streaming from Space Station
objects crossing your sky now

STARLINK-5836

Track STARLINK-5836 now!
10-day predictions
STARLINK-5836 is classified as:


NORAD ID: 56386
Int'l Code: 2023-061N
Perigee: 565.3 km
Apogee: 567.2 km
Inclination: 43.0 °
Period: 95.8 minutes
Semi major axis: 6937 km
RCS: Unknown
Launch date: May 4, 2023
Source: United States (US)
Launch site: AIR FORCE EASTERN TEST RANGE (AFETR)
Your satellite tracking list
Your tracking list is empty




NASA's NSSDC Master Catalog

Two Line Element Set (TLE):
1 56386U 23061N   24278.07412280  .00003294  00000-0  25877-3 0  9997
2 56386  43.0027 151.4757 0001352 261.4396  98.6294 15.02536119 78295
Source of the keplerian elements: AFSPC